Regional Weather Roundup
Issued by NWS Mobile, AL

Home | Current Version | Previous Version | Text Only | Print | Product List | Glossary On
Versions: 1 2 3 4 5 6 7 8 9 10 11 12 13 14 15 16 17 18 19 20 21 22 23 24 25 26 27 28 29 30 31 32 33 34 35 36 37 38 39 40 41 42 43 44 45 46 47 48 49 50
000
ASUS44 KMOB 011210
RWRMOB
REGIONAL WEATHER ROUNDUP
NATIONAL WEATHER SERVICE MOBILE AL
700 AM CDT WED OCT 01 2014

NOTE: "FAIR" INDICATES FEW OR NO CLOUDS BELOW 12,000 FEET WITH NO
      SIGNIFICANT WEATHER AND/OR OBSTRUCTIONS TO VISIBILITY.

  * THESE STATIONS ARE PART OF THE UNIVERSITY OF SOUTH ALABAMA
    MESONET AND ARE NOT UNDER NWS OR FAA QUALITY CONTROL.

ALZ061>064-011300-
COASTAL ALABAMA

CITY           SKY/WX    TMP DP  RH WIND       PRES   REMARKS
MOBILE REG APT PTCLDY    65  65 100 CALM      29.95R FOG
6HR MIN TEMP:  64; 6HR MAX TEMP:  69;

BROOKLEY FIELD PTCLDY    67  67 100 NW5       29.95R
6HR MIN TEMP:  67; 6HR MAX TEMP:  74;

USA CAMPUS*      N/A     64  64 100 CALM      29.94R
DOG RIVER*     NOT AVBL


CITY           SKY/WX    TMP DP  RH WIND       PRES   REMARKS
MOUNT VERNON*    N/A     59  57  94 CALM      29.95R
SARALAND*      NOT AVBL
BAY MINETTE*   NOT AVBL
LOXLEY*          N/A     63  63 100 CALM      29.94R
ROBERTSDALE*     N/A     64  64 100 CALM      29.94R
FAIRHOPE*        N/A     63  63 100 NE3       29.93R
ELBERTA*         N/A     64  64 100 CALM      29.93R
FOLEY*         NOT AVBL
GRAND BAY*       N/A     66  66 100 CALM      29.92R
DAUPHIN ISLND* NOT AVBL
BON SCOUR NWR* NOT AVBL
GULF SHORES    CLEAR     67  65  96 CALM      29.93R

$$

ALZ051>060-011300-
INTERIOR SOUTHWEST AND SOUTH CENTRAL ALABAMA

CITY           SKY/WX    TMP DP  RH WIND       PRES   REMARKS
GREENVILLE     MOCLDY    61  57  88 N3        29.97R FOG
6HR MIN TEMP:  60; 6HR MAX TEMP:  64;

EVERGREEN      CLEAR     61  59  93 CALM      29.96R
6HR MIN TEMP:  60; 6HR MAX TEMP:  65;

CASTLEBERRY*   NOT AVBL
ATMORE*        NOT AVBL
DIXIE*         NOT AVBL
ANDALUSIA/OPP  FOG       63  59  87 CALM      29.96R VSB 1/4
6HR MIN TEMP:  63; 6HR MAX TEMP:  68;

ANDALUSIA*     NOT AVBL
FLORALA APT    FOG       63  63 100 CALM      29.98R VSB 1
6HR MIN TEMP:  60; 6HR MAX TEMP:  65;

FLORALA*       NOT AVBL

$$

FLZ001>006-011300-
WESTERN FLORIDA PANHANDLE

CITY           SKY/WX    TMP DP  RH WIND       PRES   REMARKS
PENSACOLA      PTCLDY    68  66  93 N3        29.93R
6HR MIN TEMP:  67; 6HR MAX TEMP:  70;

NAS PENSACOLA  PTCLDY    68  67  96 N3        29.93R
6HR MIN TEMP:  66; 6HR MAX TEMP:  70;

MILTON         PTCLDY    64  61  90 N3        29.95R
6HR MIN TEMP:  61; 6HR MAX TEMP:  65;

WHTNG S FIELD  PTCLDY    66  63  90 NE5       29.95R
6HR MIN TEMP:  62; 6HR MAX TEMP:  67;



CITY           SKY/WX    TMP DP  RH WIND       PRES   REMARKS
WALNUT HILL*   NOT AVBL
JAY*             N/A     63  63 100 NE3       29.96
DUKE FIELD     PTCLDY    62  62  99 NE3       29.95S FOG
CRESTVIEW      PTCLDY    59  58  96 CALM      29.97R
6HR MIN TEMP:  59; 6HR MAX TEMP:  63;

VALPARAISO     PTCLDY    65  64  96 N5        29.95R
6HR MIN TEMP:  65; 6HR MAX TEMP:  67;

DESTIN         CLOUDY    71  69  93 NE5       29.94R
6HR MIN TEMP:  70; 6HR MAX TEMP:  71;


$$

MSZ076-079-011300-
INTERIOR SOUTHEAST MISSISSIPPI

CITY           SKY/WX    TMP DP  RH WIND       PRES   REMARKS
LEAKESVILLE*     N/A     64  63  94 CALM      29.95R
AGRICOLA*      NOT AVBL

$$

MARINE OBSERVATIONS

STATION/POSITION TIME  TEMP    WIND        PRES    WAVE
                       AIR SEA DIR/SP/G            HT/PER
                 (UTC) (F)     (DEG/KT/KT) (MB)    (FT/S)
PASCAGOULA       1200   72      60/  7/  8 1013.0R
PETIT BOIS ISLND 1200   76      60/  9/ 11 1013.3R
GRAND BAY        1100   73      70/  5     1014.0S
KATRINA CUT      1100   76      90/  8     1013.5S
CEDAR POINT      1100   75      90/  6     1012.9F
E DAUPHIN ISLAND 1200   75      70/ 10/ 11 1013.3R
MIDDLE BAY LIGHT 1100   74      80/  9     1013.2R
STATE DOCKS      1200   70 80              1013.5R
MEAHER PARK      1100   69     360/  1     1013.9R
WEEKS BAY        1100   67                   N/A
FORT MORGAN      1200   74      80/ 11/ 11 1012.8R
12 S ORANGE BCH  1200   78 81  140/  2/  4 1013.3R   1/ 3
PENSACOLA BAY    1200   70 79   30/  4/  5 1013.7S
64 S DAUPHIN ISL 1056   79 82  130/  6/  8 1013.0    1/ 4
67 S FORT MORGAN 1100   78                 1012.5R

$$

SELECTED LOCATIONS ACROSS THE REGION

CITY           SKY/WX    TMP DP  RH WIND       PRES   REMARKS
NEW ORLEANS    PTCLDY    76  71  85 E5        29.89R
GULFPORT       PTCLDY    71  69  93 NE3       29.92R
PASCAGOULA AP  CLEAR     65  64  97 CALM      29.93R
PASCAGOULA*      N/A     70  68  94 CALM      29.92R
HATTIESBURG    FOG       66  65  96 CALM      29.94S VSB 1/4
LAUREL         MOCLDY    64  63  94 CALM      29.95R VSB 3/4
MERIDIAN       CLEAR     60  58  92 CALM      29.95R
JACKSON        CLOUDY    71  69  93 SE5       29.93R FOG
MONTGOMERY     CLEAR     63  61  93 CALM      29.97R FOG
TROY           FOG       61  60  97 CALM      29.98R VSB 3/4
KINSTON*       NOT AVBL
GENEVA*          N/A     59  57  94 CALM      29.99R
ASHFORD*       NOT AVBL
DOTHAN         CLOUDY    65  65 100 CALM      30.00R
PANAMA CITY    CLEAR     66  64  93 CALM      29.94R

$$




USA.gov is the U.S. government's official web portal to all federal, state and local government web resources and services.